Date,TemperatureHighF,TemperatureAvgF,TemperatureLowF,DewpointHighF,DewpointAvgF,DewpointLowF,HumidityHigh,HumidityAvg,HumidityLow,PressureMaxIn,PressureMinIn,WindSpeedMaxMPH,WindSpeedAvgMPH,GustSpeedMaxMPH,PrecipitationSumIn
2013-8-1,73,65,60,54,52,46,78,63,40,29.96,29.80,0,0,15,0.00
2013-8-2,79,65,58,57,52,48,85,65,34,29.84,29.72,0,0,13,0.00
2013-8-3,78,66,57,55,53,50,86,66,40,29.84,29.68,0,0,11,0.00
2013-8-4,76,64,59,55,54,50,82,69,42,29.88,29.76,0,0,14,0.00
2013-8-5,76,64,60,57,54,50,80,69,43,29.88,29.76,0,0,13,0.00
2013-8-6,74,64,59,57,54,50,83,71,44,29.92,29.80,0,0,15,0.00
2013-8-7,75,66,61,57,54,50,82,68,44,30.00,29.88,0,0,15,0.00
2013-8-8,76,66,60,59,55,52,82,70,45,29.88,29.76,0,0,15,0.00
2013-8-9,73,64,60,57,55,52,84,70,48,29.84,29.72,0,0,13,0.00
2013-8-10,76,66,61,59,56,52,82,72,44,29.92,29.84,0,0,14,0.00
2013-8-11,76,66,61,59,56,52,83,70,42,29.88,29.76,0,0,11,0.00
2013-8-12,81,68,58,59,53,45,88,63,30,29.84,29.72,0,0,13,0.00
2013-8-13,87,69,59,61,53,43,82,60,23,29.84,29.68,0,0,11,0.00
2013-8-14,80,68,59,61,55,48,83,65,34,29.84,29.72,0,0,13,0.00
2013-8-15,82,71,65,64,62,59,88,73,48,29.80,29.72,0,0,13,0.00
2013-8-16,86,71,65,66,58,45,93,67,27,29.84,29.76,0,0,14,0.00
2013-8-17,75,68,63,61,56,52,78,68,52,29.84,29.68,0,0,9,0.00
2013-8-18,91,74,61,64,57,52,84,59,27,29.68,29.53,0,0,13,0.00
2013-8-19,89,76,68,63,56,50,72,51,28,29.68,29.57,0,0,15,0.00
2013-8-20,84,71,65,61,55,50,77,58,33,29.68,29.57,0,0,14,0.00
2013-8-21,80,68,63,57,54,50,75,62,39,29.76,29.65,0,0,14,0.00
2013-8-22,76,66,61,57,54,50,80,66,42,29.80,29.68,0,0,15,0.00
2013-8-23,75,65,61,57,55,52,79,69,46,29.76,29.61,0,0,11,0.00
2013-8-24,78,67,60,59,57,54,87,71,43,29.72,29.65,0,0,14,0.00
2013-8-25,84,70,66,66,60,57,87,72,43,29.76,29.68,0,0,15,0.00
2013-8-26,78,69,64,59,56,50,81,66,43,29.84,29.72,0,0,13,0.00
2013-8-27,82,68,60,59,55,48,79,65,33,29.72,29.61,0,0,15,0.00
2013-8-28,82,70,64,63,59,55,82,71,43,29.76,29.65,0,0,13,0.00
2013-8-29,82,71,66,64,61,57,87,72,45,29.92,29.76,0,0,12,0.00
2013-8-30,89,73,64,64,59,52,90,66,29,29.88,29.72,0,0,13,0.00
2013-8-31,81,69,32,59,55,32,80,62,33,29.84,29.72,0,0,13,0.00